TimeEST,TemperatureF,Dew PointF,Humidity,Sea Level PressureIn,VisibilityMPH,Wind Direction,Wind SpeedMPH,Gust SpeedMPH,PrecipitationIn,Events,Conditions,WindDirDegrees,DateUTC
12:54 AM,30.9,21.0,67,30.27,10.0,SW,4.6,-,N/A,,Overcast,230,2012-11-29 05:54:00
1:54 AM,32.0,19.9,61,30.27,10.0,WSW,6.9,-,N/A,,Overcast,240,2012-11-29 06:54:00
2:54 AM,32.0,19.9,61,30.29,10.0,WSW,4.6,-,N/A,,Overcast,250,2012-11-29 07:54:00
3:54 AM,32.0,21.0,64,30.28,10.0,WSW,3.5,-,N/A,,Overcast,240,2012-11-29 08:54:00
4:54 AM,32.0,21.0,64,30.28,10.0,SW,8.1,-,N/A,,Overcast,230,2012-11-29 09:54:00
5:54 AM,32.0,21.0,64,30.29,10.0,SSW,5.8,-,N/A,,Overcast,210,2012-11-29 10:54:00
6:54 AM,30.2,21.2,69,30.28,9.0,SSW,3.5,-,N/A,,Clear,200,2012-11-29 11:54:00
7:54 AM,30.0,21.0,69,30.33,7.0,SW,5.8,-,N/A,,Clear,220,2012-11-29 12:54:00
8:54 AM,30.9,21.9,69,30.33,7.0,SSW,5.8,-,N/A,,Clear,210,2012-11-29 13:54:00
9:54 AM,33.1,23.0,66,30.34,7.0,SSW,8.1,-,N/A,,Clear,210,2012-11-29 14:54:00
10:54 AM,35.1,24.1,64,30.35,7.0,SW,8.1,-,N/A,,Clear,220,2012-11-29 15:54:00
11:54 AM,36.0,24.1,62,30.32,8.0,SW,12.7,19.6,N/A,,Clear,230,2012-11-29 16:54:00
12:54 PM,37.9,24.1,57,30.29,8.0,SW,10.4,17.3,N/A,,Clear,230,2012-11-29 17:54:00
1:54 PM,39.0,24.1,55,30.27,8.0,SW,11.5,18.4,N/A,,Clear,220,2012-11-29 18:54:00
2:54 PM,39.9,25.0,55,30.26,9.0,SW,12.7,-,N/A,,Clear,220,2012-11-29 19:54:00
3:54 PM,39.0,23.0,53,30.26,9.0,SW,9.2,18.4,N/A,,Clear,230,2012-11-29 20:54:00
4:54 PM,37.9,23.0,55,30.26,10.0,SW,6.9,-,N/A,,Clear,220,2012-11-29 21:54:00
5:54 PM,37.0,23.0,57,30.28,10.0,SW,5.8,-,N/A,,Clear,220,2012-11-29 22:54:00
6:54 PM,36.0,23.0,59,30.28,10.0,SW,5.8,-,N/A,,Clear,230,2012-11-29 23:54:00
7:54 PM,35.1,21.9,59,30.29,10.0,SSW,3.5,-,N/A,,Clear,210,2012-11-30 00:54:00
8:54 PM,34.0,21.9,61,30.29,10.0,SSW,3.5,-,N/A,,Clear,210,2012-11-30 01:54:00
9:54 PM,30.0,21.9,72,30.31,10.0,Calm,Calm,-,N/A,,Clear,0,2012-11-30 02:54:00
10:54 PM,32.0,21.9,66,30.31,10.0,Calm,Calm,-,N/A,,Clear,0,2012-11-30 03:54:00
11:54 PM,32.0,21.9,66,30.31,10.0,South,3.5,-,N/A,,Clear,190,2012-11-30 04:54:00